Terminal Aerodrome Forecast
Issued by NWS Portland, OR

Home | Current Version | Previous Version | Text Only | Print | Product List | Glossary On
Versions: 1 2 3 4 5 6 7 8 9 10 11 12 13 14 15 16 17 18
000
FTUS46 KPQR 201722
TAFSLE
TAF
KSLE 201722Z 2018/2118 14004KT P6SM BKN250
     FM210900 19003KT P6SM OVC150=

USA.gov is the U.S. government's official web portal to all federal, state and local government web resources and services.